This demonstration page uses our WeatherBlox Daily Observations layout. Learn more.

Left ArrowRight Arrow

34.02893, -84.19858

Hourly Observations for June 21, 2020

Temp ( °F °C ) Dew Point ( °F °C ) Humidity (%) Winds ( mph kmh ) Pressure ( in mb ) Visibility ( mi km ) Precip ( " mm )
12:53 am 00:53 Clear 69 20.6 66 18.9 90 90 Calm 29.99 1016 10 16 0.00 0.00
1:53 am 01:53 Clear 68 20 66 18.9 93 93 Calm 29.98 1015 10 16 0.00 0.00
2:53 am 02:53 Clear 67 19.4 66 18.9 97 97 Calm 29.97 1015 10 16 0.00 0.00
3:53 am 03:53 Clear 67 19.4 65 18.3 93 93 Calm 29.96 1015 9 14 0.00 0.00
4:53 am 04:53 Clear 66 18.9 65 18.3 96 96 Calm 29.95 1014 8 13 0.00 0.00
5:53 am 05:53 Clear 66 18.9 65 18.3 96 96 Calm 29.96 1015 8 13 0.00 0.00
6:53 am 06:53 Mostly Sunny 66 18.9 65 18.3 96 96 SSW 3 6 29.98 1015 8 13 0.00 0.00
7:53 am 07:53 Cloudy 73 22.8 68 20 84 84 Calm 29.99 1016 9 14 0.00 0.00
8:53 am 08:53 Sunny 76 24.4 69 20.6 79 79 Calm 30.01 1016 10 16 0.00 0.00
9:53 am 09:53 Sunny 81 27.2 67 19.4 62 62 W 5 7 30.01 1016 10 16 0.00 0.00
10:53 am 10:53 Sunny 83 28.3 68 20 61 61 W 5 7 30.01 1016 10 16 0.00 0.00
11:53 am 11:53 Mostly Sunny 86 30 69 20.6 57 57 W 6 9 30.01 1016 10 16 0.00 0.00
12:53 pm 12:53 Mostly Sunny 87 30.6 68 20 53 53 Calm 30.00 1016 10 16 0.00 0.00
1:53 pm 13:53 Mostly Cloudy 87 30.6 65 18.3 48 48 VRB 3 6 29.98 1015 10 16 0.00 0.00
2:53 pm 14:53 Partly Cloudy 89 31.7 66 18.9 47 47 SSW 8 13 29.95 1014 10 16 0.00 0.00
3:53 pm 15:53 Mostly Cloudy 88 31.1 66 18.9 48 48 S 12 19 29.93 1014 10 16 0.00 0.00
4:53 pm 16:53 Sunny 85 29.4 65 18.3 51 51 S 12 19 29.93 1014 10 16 0.00 0.00
5:53 pm 17:53 Mostly Cloudy 83 28.3 67 19.4 59 59 W 15 24 29.97 1015 10 16 0.00 0.00
6:53 pm 18:53 Mostly Cloudy 75 23.9 64 17.8 69 69 WSW 9 15 29.97 1015 10 16 0.00 0.00
7:53 pm 19:53 Mostly Sunny 72 22.2 67 19.4 84 84 WNW 5 7 29.97 1015 10 16 0.01 0.25
8:53 pm 20:53 Clear 71 21.7 68 20 90 90 Calm 29.97 1015 10 16 0.00 0.00
9:53 pm 21:53 Clear 70 21.1 67 19.4 90 90 Calm 29.98 1015 9 14 0.00 0.00
10:53 pm 22:53 Clear 69 20.6 67 19.4 93 93 Calm 29.98 1015 8 13 0.00 0.00
11:53 pm 23:53 Clear 68 20 67 19.4 96 96 Calm 29.98 1015 8 13 0.00 0.00

Powered by AerisWeather